Weather History for Georgetown, SC

Change the Weather History Date:

Sunday, December 9, 2012

  Actual Average Record
Temperature  
Mean Temperature 60 °F -  
Max Temperature 73 °F 65 °F 73 °F (2012)
Min Temperature 46 °F 41 °F 28 °F (2010)
Degree Days  
Heating Degree Days 6    
Growing Degree Days 10 (Base 50)    
Moisture  
Dew Point 58 °F    
Average Humidity 94    
Maximum Humidity 100    
Minimum Humidity 73    
Precipitation  
Precipitation 0.00 in - - ()
Sea Level Pressure  
Sea Level Pressure 30.09 in    
Wind  
Wind Speed 2 mph (ESE)    
Max Wind Speed 12 mph    
Max Gust Speed -    
Visibility 7 miles    
Events Fog    
Averages and records for this station are not official NWS values.
T = Trace of Precipitation, MM = Missing Value Source: NWS Daily Summary

Daily Weather History Graph

Daily Weather History Graph

Search for Another Location

Airport:

Trip Planner

Search our weather history database for the weather conditions in past years. The results will help you decide how hot, cold, wet, or windy it might be!

Date:

Astronomy

Dec. 09, 2012 Rise Set
Actual Time 7:09 AM EST 5:09 PM EST
Civil Twilight 6:42 AM EST 5:37 PM EST
Nautical Twilight 6:11 AM EST 6:08 PM EST
Astronomical Twilight 5:41 AM EST 6:38 PM EST
Moon 2:49 AM EST (12/9) 2:07 PM EST (12/9)
Length of Visible Light 10h 54m
Length of Day
10h 00m
Waning Crescent, 19% of the Moon is Illuminated
Dec 9
Waning Crescent
Dec 13
New
Dec 20
First Quarter
Dec 28
Full
Jan 4
Last Quarter

Hourly Weather History & Observations

Time (EST) Temp. Dew Point Humidity Pressure Visibility Wind Dir Wind Speed Gust Speed Precip Events Conditions
12:15 AM 50.0 °F 50.0 °F 100% 30.10 in 1.2 mi Calm Calm - N/A   Mist
12:35 AM 50.0 °F 50.0 °F 100% 30.10 in 5.0 mi Calm Calm - N/A   Mostly Cloudy
12:55 AM 50.0 °F 50.0 °F 100% 30.09 in 10.0 mi Calm Calm - N/A   Scattered Clouds
1:15 AM 50.0 °F 50.0 °F 100% 30.09 in 2.5 mi Calm Calm - N/A   Clear
1:35 AM 50.0 °F 50.0 °F 100% 30.09 in 5.0 mi Calm Calm - N/A   Clear
1:55 AM 50.0 °F 50.0 °F 100% 30.09 in 10.0 mi Calm Calm - N/A   Clear
2:15 AM 48.2 °F 48.2 °F 100% 30.10 in 7.0 mi Calm Calm - N/A   Clear
2:35 AM 50.0 °F 50.0 °F 100% 30.10 in 7.0 mi Calm Calm - N/A   Clear
2:55 AM 50.0 °F 50.0 °F 100% 30.10 in 7.0 mi Calm Calm - N/A   Clear
3:15 AM 50.0 °F 50.0 °F 100% 30.10 in 10.0 mi Calm Calm - N/A   Clear
3:35 AM 50.0 °F 50.0 °F 100% 30.10 in 5.0 mi Calm Calm - N/A   Clear
3:55 AM 50.0 °F 50.0 °F 100% 30.10 in 0.5 mi Calm Calm - N/A Fog Fog
4:15 AM 50.0 °F 50.0 °F 100% 30.10 in 0.2 mi Calm Calm - N/A Fog Fog
4:35 AM 48.2 °F 48.2 °F 100% 30.10 in 0.2 mi Calm Calm - N/A Fog Fog
4:55 AM 48.2 °F 48.2 °F 100% 30.10 in 0.2 mi Calm Calm - N/A Fog Fog
5:15 AM 50.0 °F 50.0 °F 100% 30.10 in 0.2 mi Calm Calm - N/A Fog Fog
5:35 AM 48.2 °F 48.2 °F 100% 30.11 in 0.5 mi Calm Calm - N/A Fog Fog
5:55 AM 46.4 °F 46.4 °F 100% 30.12 in 4.0 mi Calm Calm - N/A   Overcast
6:15 AM 46.4 °F 46.4 °F 100% 30.12 in 0.5 mi Calm Calm - N/A Fog Fog
6:35 AM 48.2 °F 48.2 °F 100% 30.13 in 0.2 mi Calm Calm - N/A Fog Fog
6:55 AM 48.2 °F 48.2 °F 100% 30.13 in 0.2 mi Calm Calm - N/A Fog Fog
7:15 AM 50.0 °F 50.0 °F 100% 30.13 in 1.8 mi Calm Calm - N/A   Mostly Cloudy
7:35 AM 48.2 °F 48.2 °F 100% 30.14 in 3.0 mi Calm Calm - N/A   Scattered Clouds
7:55 AM 50.0 °F 50.0 °F 100% 30.14 in 2.5 mi Calm Calm - N/A   Mostly Cloudy
8:15 AM 53.6 °F 53.6 °F 100% 30.14 in 4.0 mi Calm Calm - N/A   Scattered Clouds
8:35 AM 55.4 °F 55.4 °F 100% 30.15 in 4.0 mi Calm Calm - N/A   Clear
8:55 AM 59.0 °F 59.0 °F 100% 30.15 in 5.0 mi Calm Calm - N/A   Scattered Clouds
9:15 AM 60.8 °F 60.8 °F 100% 30.16 in 7.0 mi SE 3.5 mph - N/A   Mostly Cloudy
9:35 AM 62.6 °F 62.6 °F 100% 30.16 in 10.0 mi ESE 4.6 mph - N/A   Mostly Cloudy
9:55 AM 64.4 °F 62.6 °F 94% 30.16 in 10.0 mi Calm Calm - N/A   Mostly Cloudy
10:35 AM 68.0 °F 64.4 °F 88% 30.16 in 10.0 mi SE 6.9 mph - N/A   Clear
10:55 AM 69.8 °F 64.4 °F 83% 30.15 in 10.0 mi ESE 5.8 mph - N/A   Clear
11:35 AM 71.6 °F 64.4 °F 78% 30.14 in 10.0 mi ESE 6.9 mph - N/A   Scattered Clouds
11:55 AM 71.6 °F 64.4 °F 78% 30.13 in 10.0 mi SE 8.1 mph - N/A   Clear
12:15 PM 73.4 °F 64.4 °F 73% 30.11 in 10.0 mi SE 8.1 mph - N/A   Clear
12:35 PM 71.6 °F 64.4 °F 78% 30.10 in 10.0 mi ESE 10.4 mph - N/A   Clear
12:55 PM 73.4 °F 64.4 °F 73% 30.09 in 10.0 mi ESE 9.2 mph - N/A   Clear
1:15 PM 73.4 °F 64.4 °F 73% 30.08 in 10.0 mi ESE 9.2 mph - N/A   Clear
1:35 PM 71.6 °F 64.4 °F 78% 30.08 in 10.0 mi ESE 11.5 mph - N/A   Clear
1:55 PM 73.4 °F 64.4 °F 73% 30.07 in 10.0 mi ESE 10.4 mph - N/A   Clear
2:15 PM 71.6 °F 64.4 °F 78% 30.07 in 10.0 mi ESE 9.2 mph - N/A   Scattered Clouds
2:35 PM 71.6 °F 64.4 °F 78% 30.07 in 10.0 mi ESE 10.4 mph - N/A   Scattered Clouds
2:55 PM 71.6 °F 64.4 °F 78% 30.07 in 10.0 mi ESE 8.1 mph - N/A   Scattered Clouds
3:15 PM 71.6 °F 64.4 °F 78% 30.08 in 10.0 mi ESE 8.1 mph - N/A   Scattered Clouds
3:35 PM 71.6 °F 64.4 °F 78% 30.07 in 10.0 mi ESE 8.1 mph - N/A   Mostly Cloudy
3:55 PM 69.8 °F 64.4 °F 83% 30.07 in 10.0 mi ESE 4.6 mph - N/A   Scattered Clouds
4:15 PM 68.0 °F 64.4 °F 88% 30.07 in 10.0 mi ESE 4.6 mph - N/A   Mostly Cloudy
4:35 PM 68.0 °F 64.4 °F 88% 30.07 in 10.0 mi ESE 3.5 mph - N/A   Overcast
5:15 PM 64.4 °F 64.4 °F 100% 30.06 in 10.0 mi Calm Calm - N/A   Overcast
5:35 PM 64.4 °F 64.4 °F 100% 30.07 in 10.0 mi SE 3.5 mph - N/A   Overcast
5:55 PM 62.6 °F 62.6 °F 100% 30.07 in 10.0 mi Calm Calm - N/A   Mostly Cloudy
6:15 PM 62.6 °F 62.6 °F 100% 30.06 in 10.0 mi Calm Calm - N/A   Mostly Cloudy
6:35 PM 62.6 °F 62.6 °F 100% 30.07 in 10.0 mi Calm Calm - N/A   Scattered Clouds
6:55 PM 62.6 °F 62.6 °F 100% 30.06 in 10.0 mi Calm Calm - N/A   Scattered Clouds
7:15 PM 60.8 °F 60.8 °F 100% 30.06 in 10.0 mi Calm Calm - N/A   Mostly Cloudy
7:35 PM 60.8 °F 60.8 °F 100% 30.06 in 10.0 mi Calm Calm - N/A   Mostly Cloudy
7:55 PM 60.8 °F 60.8 °F 100% 30.06 in 10.0 mi Calm Calm - N/A   Scattered Clouds
8:15 PM 60.8 °F 60.8 °F 100% 30.05 in 10.0 mi Calm Calm - N/A   Mostly Cloudy
8:35 PM 60.8 °F 60.8 °F 100% 30.05 in 10.0 mi Calm Calm - N/A   Overcast
8:55 PM 62.6 °F 62.6 °F 100% 30.06 in 10.0 mi Calm Calm - N/A   Mostly Cloudy
9:15 PM 60.8 °F 60.8 °F 100% 30.05 in 7.0 mi Calm Calm - N/A   Overcast
9:35 PM 62.6 °F 62.6 °F 100% 30.04 in 10.0 mi Calm Calm - N/A   Overcast
9:55 PM 60.8 °F 60.8 °F 100% 30.04 in 10.0 mi Calm Calm - N/A   Overcast
10:15 PM 62.6 °F 62.6 °F 100% 30.03 in 10.0 mi Calm Calm - N/A   Overcast
10:35 PM 62.6 °F 62.6 °F 100% 30.03 in 10.0 mi Calm Calm - N/A   Overcast
10:55 PM 64.4 °F 64.4 °F 100% 30.02 in 10.0 mi Calm Calm - N/A   Overcast
11:15 PM 64.4 °F 64.4 °F 100% 30.02 in 10.0 mi Calm Calm - N/A   Overcast
11:35 PM 64.4 °F 64.4 °F 100% 30.01 in 10.0 mi ESE 4.6 mph - N/A   Overcast
11:55 PM 64.4 °F 64.4 °F 100% 29.99 in 10.0 mi Calm Calm - N/A   Overcast